Oujda/Angades, Morocco

6:30 AM WET on January 22, 2017 (GMT +0000)
Angads

Weather History for GMFO - October, 2011

Change the Weather History Date:

Friday, October 14, 2011

  Actual Average Record
Temperature  
Mean Temperature 70 °F -  
Max Temperature 85 °F 71 °F 87 °F (2002)
Min Temperature 55 °F 50 °F 46 °F (2000)
Cooling Degree Days 5    
Growing Degree Days 20 (Base 50)    
Moisture  
Dew Point 47 °F    
Average Humidity 50    
Maximum Humidity 67    
Minimum Humidity 27    
Precipitation  
Precipitation 0.00 in 0.05 in - ()
Sea Level Pressure  
Sea Level Pressure 30.07 in    
Wind  
Wind Speed 4 mph ()    
Max Wind Speed 15 mph    
Max Gust Speed -    
Visibility 10.1 miles    
Events      
Averages and records for this station are not official NWS values.
T = Trace of Precipitation, MM = Missing Value Source: Averaged Metar Reports

Daily Weather History Graph

Daily Weather History Graph

Search for Another Location

Airport or City:

Trip Planner

Search our weather history database for the weather conditions in past years. The results will help you decide how hot, cold, wet, or windy it might be!

Date:

Astronomy

Oct. 14, 2011 Rise Set
Actual Time 6:12 AM WET 5:34 PM WET
Civil Twilight 5:46 AM WET 6:00 PM WET
Nautical Twilight 5:17 AM WET 6:29 PM WET
Astronomical Twilight 4:48 AM WET 6:58 PM WET
Moon 6:47 PM WET (10/14) 8:19 AM WET (10/14)
Length of Visible Light 12h 13m
Length of Day
11h 22m
Waning Gibbous, 95% of the Moon is Illuminated
Oct 14
Waning Gibbous
Oct 20
Last Quarter
Oct 26
New
Nov 2
First Quarter
Nov 10
Full

Hourly Weather History & Observations

Time (WET) Temp. Dew Point Humidity Pressure Visibility Wind Dir Wind Speed Gust Speed Precip Events Conditions
12:00 AM 60 °F 45 °F 46% 30.09 in 16 mi SW 5.8 mph - -  
12:00 AM 60.8 °F 44.6 °F 55% 30.09 in - SW 5.8 mph - N/A   Clear
1:00 AM 60.8 °F 44.6 °F 55% 30.09 in - SW 3.5 mph - N/A   Clear
3:00 AM 59 °F 44 °F 47% 30.06 in 16 mi West 2.3 mph - -  
3:00 AM 59.0 °F 44.6 °F 59% 30.06 in - Variable 2.3 mph - N/A   Clear
4:00 AM 57.2 °F 44.6 °F 63% 30.06 in - Variable 2.3 mph - N/A   Clear
5:00 AM 55.4 °F 42.8 °F 63% 30.06 in - Variable 1.2 mph - N/A   Clear
6:00 AM 57.2 °F 42.8 °F 59% 30.06 in - SW 4.6 mph - N/A   Clear
7:00 AM 57.2 °F 42.8 °F 59% 30.09 in - Calm Calm - N/A   Clear
8:00 AM 66.2 °F 44.6 °F 46% 30.09 in - Calm Calm - N/A   Clear
9:00 AM 73.4 °F 46.4 °F 38% 30.09 in - Variable 1.2 mph - N/A   Clear
11:00 AM 82.4 °F 46.4 °F 28% 30.09 in 6.2 mi NE 3.5 mph - N/A   Partly Cloudy
12:00 PM 86.0 °F 48.2 °F 27% 30.06 in 6.2 mi NNE 4.6 mph - N/A   Partly Cloudy
1:00 PM 84.2 °F 50.0 °F 30% 30.04 in 6.2 mi NNW 12.7 mph - N/A   Partly Cloudy
2:00 PM 84.2 °F 50.0 °F 30% 30.04 in 6.2 mi North 15.0 mph - N/A   Partly Cloudy
5:00 PM 77.0 °F 51.8 °F 41% 30.06 in 6.2 mi North 12.7 mph - N/A   Partly Cloudy
6:00 PM 71 °F 54 °F 46% 30.01 in 16 mi NNW 8.1 mph - -   Scattered Clouds
6:00 PM 71.6 °F 53.6 °F 53% 30.06 in 6.2 mi NNW 8.1 mph - N/A   Partly Cloudy
8:00 PM 66.2 °F 53.6 °F 64% 30.09 in - North 3.5 mph - N/A   Clear
9:00 PM 61 °F 48 °F 53% 30.08 in 16 mi Calm Calm - -  
9:00 PM 60.8 °F 48.2 °F 63% 30.09 in - Calm Calm - N/A   Clear
10:00 PM 59.0 °F 44.6 °F 59% 30.12 in - WSW 3.5 mph - N/A   Clear
11:00 PM 57.2 °F 46.4 °F 67% 30.12 in - Variable 1.2 mph - N/A   Clear